Regional Weather Roundup
Issued by NWS Mt. Holly, NJ

Home | Current Version | Previous Version | Text Only | Print | Product List | Glossary On
Versions: 1 2 3 4 5 6 7 8 9 10 11 12 13 14 15 16 17 18 19 20 21 22 23 24 25 26 27 28 29 30 31 32 33 34 35 36 37 38 39 40 41 42 43 44 45 46 47 48 49 50
000
ASUS41 KPHI 041711
RWRPHI

REGIONAL WEATHER ROUNDUP
NATIONAL WEATHER SERVICE MOUNT HOLLY NJ
100 PM EDT MON MAY 04 2015

NOTE:  "FAIR" INDICATES FEW OR NO CLOUDS BELOW 12,000 FEET WITH NO
SIGNIFICANT WEATHER AND/OR OBSTRUCTIONS TO VISIBILITY.

 * = STATION DOES NOT REPORT PRECIPITATION (E.G. RAIN, SNOW, ETC.)
        OR FOG.

NJZ015>026-041800-
SOUTHERN NEW JERSEY

CITY           SKY/WX    TMP DP  RH WIND       PRES   REMARKS
POMONA         MOSUNNY   82  38  20 SW14G22   30.22F
RIO GRANDE*    SUNNY     81  48  32 S10         N/A
MILLVILLE      SUNNY     81  44  27 SW12G22   30.23F
WRIGHTSTOWN    MOSUNNY   83  39  20 W10G22    30.17F
MOUNT HOLLY    MOSUNNY   82  42  24 SW13G18   30.20F
TRENTON        MOSUNNY   82  42  24 SW10      30.19F

$$
NJZ001>014-041800-
NORTHERN NEW JERSEY

CITY           SKY/WX    TMP DP  RH WIND       PRES   REMARKS
SUSSEX         SUNNY     82  40  22 S14G23    30.17F
ANDOVER*         N/A     81  37  20 SW12G22   30.17F
MORRISTOWN     MOSUNNY   82  39  21 SW18G26   30.17F
NEWARK         MOSUNNY   83  39  21 SW13      30.17F
TETERBORO      MOSUNNY   83  42  23 S13G22    30.15F
CALDWELL       MOSUNNY   83  36  18 SW10G21   30.17F
SOMERVILLE     CLOUDY    82  40  22 SW8       30.16F
ALLAIRE*       MOSUNNY   84  39  20 S9G18     30.20F
TOMS RIVER*    PTSUNNY   84  39  20 W6        30.19F

$$
PAZ043-044-047-054-055-060>062-066>071-041800-
EASTERN PENNSYLVANIA

CITY           SKY/WX    TMP DP  RH WIND       PRES   REMARKS
PHILADELPHIA   MOSUNNY   83  46  27 W13G21    30.21F
NORTH PHILA    SUNNY     83  39  21 SW15G21   30.22F
BLUE BELL      SUNNY     82  45  26 SW10      30.19F
DOYLESTOWN     MOSUNNY   81  33  17 SW9G20    30.19F
QUAKERTOWN*    MOSUNNY   82  43  24 SW8G21    30.20F
POTTSTOWN      MOSUNNY   82  38  20 S12       30.21F
LANCASTER      MOSUNNY   83  42  23 SW16G22   30.18F
COATESVILLE    SUNNY     81  41  24 SW7       30.22F
READING        MOSUNNY   83  43  24 S16G24    30.17F
ALLENTOWN      MOSUNNY   82  40  22 SW13      30.18F
MOUNT POCONO   MOSUNNY   76  34  21 W16G24    30.21F
HAZLETON       MOSUNNY   79  36  21 S8G21     30.23F
WILKES BARRE   SUNNY     82  38  20 W9G25     30.15F

$$
DEZALL-MDZ008-012-015-019-020-041800-
DELAWARE AND EASTERN MARYLAND

CITY           SKY/WX    TMP DP  RH WIND       PRES   REMARKS
WILMINGTON     SUNNY     82  48  30 SW14G24   30.22F
DOVER          SUNNY     81  48  30 S14G23    30.21F
GEORGETOWN     SUNNY     81  40  23 S16G25    30.25F
EASTON         MOSUNNY   82  50  32 MISG      30.28F
ABERDEEN       MOSUNNY   82  57  42 W12       30.20F
PATUXENT       MOSUNNY   79  47  32 S16       30.25F
OCEAN CITY     MOSUNNY   76  55  48 S8        30.27F
WALLOPS ISLAND MOSUNNY   80  51  36 S8        30.28F
CAMBRIDGE      SUNNY     81  46  30 SW8       30.25F
SALISBURY      SUNNY     80  43  26 SW10      30.25F

$$
PAZ001-021-NYZ056-072-MDZ011-DCZ001-041800-
OTHER NEARBY LOCATIONS

CITY           SKY/WX    TMP DP  RH WIND       PRES   REMARKS
HARRISBURG     SUNNY     81  44  27 SW15G23   30.17F
STATE COLLEGE  SUNNY     77  41  27 S16       30.17F
WILLIAMSPORT   MOSUNNY   80  43  26 SE10      30.13F
BINGHAMTON     MOSUNNY   75  40  28 W16G22    30.14F
NEW YORK CITY  SUNNY     84  44  24 W9        30.20F
BALTIMORE      MOSUNNY   82  41  23 SW13G22   30.20F
WASHINGTON DC  MOSUNNY   81  53  37 SW18      30.22F

$$


USA.gov is the U.S. government's official web portal to all federal, state and local government web resources and services.